GW4820 Weather Reports


time (UTC)temp
C
wind
direction
speed
KPH
gust
KPH
rain 1hr
cm
rain 24hr
cm
rain mn
cm
humidity
%
barometer
mb
20260508125613 12 158 1.6 1.6 0.00 0.00 0.00 81 1019.2
20260508125112 12 144 0.0 1.6 0.00 0.00 0.00 87 1019.1
20260508124610 11 112 0.0 0.0 0.00 0.00 0.00 88 1019.0
20260508124106 11 208 0.0 0.0 0.00 0.00 0.00 89 1018.9
20260508123605 11 208 0.0 0.0 0.00 0.00 0.00 89 1018.9
20260508123102 11 208 0.0 0.0 0.00 0.00 0.00 88 1018.9
20260508122558 10 202 0.0 1.6 0.00 0.00 0.00 89 1018.9
20260508122055 10 203 0.0 1.6 0.00 0.00 0.00 88 1018.9
20260508121554 10 172 0.0 0.0 0.00 0.00 0.00 94 1019.0
20260508121051 10 172 0.0 0.0 0.00 0.00 0.00 95 1018.6
20260508120548 10 172 0.0 0.0 0.00 0.00 0.00 96 1018.8
20260508120047 9 172 0.0 0.0 0.00 0.00 0.00 96 1018.7
20260508115544 9 172 0.0 1.6 0.00 0.00 0.00 97 1018.4
20260508115040 9 163 0.0 0.0 0.00 0.00 0.00 98 1018.4
20260508114537 9 163 0.0 0.0 0.00 0.00 0.00 98 1018.4
20260508114033 8 162 0.0 0.0 0.00 0.00 0.00 98 1018.3
20260508113531 8 162 0.0 0.0 0.00 0.00 0.00 99 1018.2
20260508113029 8 162 0.0 0.0 0.00 0.00 0.00 99 1018.2
20260508112525 8 162 0.0 0.0 0.00 0.00 0.00 99 1018.0
20260508112022 7 162 0.0 0.0 0.00 0.00 0.00 99 1017.9
20260508111519 7 162 0.0 0.0 0.00 0.00 0.00 99 1018.0
20260508111016 7 162 0.0 0.0 0.00 0.00 0.00 99 1017.9
20260508110514 7 162 0.0 0.0 0.00 0.00 0.00 99 1017.9
20260508110009 7 161 0.0 0.0 0.00 0.00 0.00 99 1017.9
20260508105505 6 161 0.0 0.0 0.00 0.00 0.00 99 1017.7
20260508105002 6 161 0.0 0.0 0.00 0.00 0.00 99 1017.8
20260508104500 6 161 0.0 0.0 0.00 0.00 0.00 99 1017.4
20260508103955 6 161 0.0 0.0 0.00 0.00 0.00 99 1017.2
20260508103453 6 162 0.0 1.6 0.00 0.00 0.00 99 1017.1
20260508102949 6 163 0.0 0.0 0.00 0.00 0.00 99 1017.1
20260508102448 6 163 0.0 0.0 0.00 0.00 0.00 99 1017.0
20260508101945 6 163 0.0 0.0 0.00 0.00 0.00 99 1017.0
20260508101443 6 163 0.0 0.0 0.00 0.00 0.00 99 1017.0
20260508100940 7 163 0.0 1.6 0.00 0.00 0.00 99 1016.9
20260508100438 7 164 0.0 0.0 0.00 0.00 0.00 99 1017.1
20260508095934 7 164 0.0 0.0 0.00 0.00 0.00 99 1017.0
20260508095432 7 164 0.0 0.0 0.00 0.00 0.00 99 1016.8
20260508094928 7 164 0.0 0.0 0.00 0.00 0.00 99 1016.6
20260508094425 7 164 0.0 0.0 0.00 0.00 0.00 99 1016.5
20260508093922 7 164 0.0 0.0 0.00 0.00 0.00 99 1016.6
20260508093420 7 164 0.0 0.0 0.00 0.00 0.00 99 1016.5
20260508092917 7 164 0.0 0.0 0.00 0.00 0.00 99 1016.4
20260508092415 7 164 0.0 0.0 0.00 0.00 0.00 99 1016.5
20260508091913 7 164 0.0 0.0 0.00 0.00 0.00 99 1016.4
20260508091409 7 164 0.0 0.0 0.00 0.00 0.00 99 1016.3
20260508090907 7 164 0.0 0.0 0.00 0.00 0.00 99 1016.4
20260508090405 7 164 0.0 0.0 0.00 0.00 0.00 99 1016.2
20260508085900 7 164 0.0 0.0 0.00 0.00 0.00 99 1016.1
20260508085357 7 164 0.0 0.0 0.00 0.00 0.00 99 1016.3
20260508084854 7 164 0.0 0.0 0.00 0.00 0.00 99 1016.3
20260508084350 7 164 0.0 0.0 0.00 0.00 0.00 99 1016.4
20260508083848 7 164 0.0 1.6 0.00 0.00 0.00 99 1016.2
20260508083346 7 164 0.0 1.6 0.00 0.00 0.00 98 1016.3
20260508082845 7 164 0.0 0.0 0.00 0.00 0.00 98 1016.1
20260508082343 7 164 0.0 1.6 0.00 0.00 0.00 98 1016.3
20260508081840 7 165 0.0 0.0 0.00 0.00 0.00 99 1016.3
20260508081337 7 165 0.0 0.0 0.00 0.00 0.00 99 1016.0
20260508080834 7 165 0.0 0.0 0.00 0.00 0.00 98 1016.0
20260508080332 7 165 0.0 0.0 0.00 0.00 0.00 98 1016.1
20260508075828 7 165 0.0 0.0 0.00 0.00 0.00 98 1015.9
20260508075325 7 165 0.0 0.0 0.00 0.00 0.00 98 1015.8
20260508074823 8 165 0.0 0.0 0.00 0.00 0.00 98 1016.0
20260508074320 7 164 0.0 0.0 0.00 0.00 0.00 98 1015.7
20260508073817 8 164 0.0 0.0 0.00 0.00 0.00 98 1015.8
20260508073315 8 164 0.0 0.0 0.00 0.00 0.00 98 1016.0
20260508072811 8 164 0.0 0.0 0.00 0.00 0.00 98 1015.9
20260508072308 8 165 0.0 0.0 0.00 0.00 0.00 98 1015.7
20260508071805 8 166 0.0 1.6 0.00 0.00 0.00 98 1015.9
20260508071303 8 165 0.0 0.0 0.00 0.00 0.00 98 1015.7
20260508070800 8 164 0.0 0.0 0.00 0.00 0.00 98 1015.7
20260508070259 8 163 0.0 0.0 0.00 0.00 0.00 98 1015.6
20260508065756 8 165 0.0 0.0 0.00 0.00 0.00 98 1015.6
20260508065253 8 165 0.0 0.0 0.00 0.00 0.00 98 1015.5
20260508064752 8 165 0.0 0.0 0.00 0.00 0.00 98 1015.5
20260508064249 8 165 0.0 0.0 0.00 0.00 0.00 98 1015.4
20260508063746 8 165 0.0 0.0 0.00 0.00 0.00 98 1015.6
20260508063244 8 165 0.0 0.0 0.00 0.00 0.00 98 1015.5
20260508062741 8 165 0.0 0.0 0.00 0.00 0.00 98 1015.6
20260508062239 8 165 0.0 0.0 0.00 0.00 0.00 98 1015.5
20260508061735 8 165 0.0 0.0 0.00 0.00 0.00 98 1015.6
20260508061233 8 165 0.0 0.0 0.00 0.00 0.00 98 1015.5
20260508060729 8 165 0.0 0.0 0.00 0.00 0.00 98 1015.7
20260508060227 8 165 0.0 0.0 0.00 0.00 0.00 98 1015.6
20260508055722 8 165 0.0 0.0 0.00 0.00 0.00 98 1015.6
20260508055220 8 165 0.0 0.0 0.00 0.00 0.00 98 1015.6
20260508054716 8 165 0.0 0.0 0.00 0.00 0.00 98 1015.5
20260508054214 8 165 0.0 0.0 0.00 0.00 0.00 98 1015.4
20260508053710 9 165 0.0 0.0 0.00 0.00 0.00 98 1015.5
20260508053208 9 166 0.0 0.0 0.00 0.00 0.00 98 1015.4
20260508052705 9 166 0.0 0.0 0.00 0.00 0.00 98 1015.4
20260508052202 9 166 0.0 0.0 0.00 0.00 0.00 98 1015.3
20260508051658 9 166 0.0 0.0 0.00 0.00 0.00 98 1015.4
20260508051154 9 166 0.0 0.0 0.00 0.00 0.00 98 1015.1
20260508050650 9 166 0.0 0.0 0.00 0.00 0.00 98 1015.4
20260508050148 9 165 0.0 1.6 0.00 0.00 0.00 98 1015.0
20260508045643 10 165 0.0 0.0 0.00 0.00 0.00 98 1015.2
20260508045142 10 164 0.0 0.0 0.00 0.00 0.00 98 1015.3
20260508044638 10 164 0.0 0.0 0.00 0.00 0.00 98 1015.0
20260508044134 10 164 0.0 0.0 0.00 0.00 0.00 98 1015.2
20260508043631 10 164 0.0 0.0 0.00 0.00 0.00 98 1015.3
20260508043129 10 164 0.0 0.0 0.00 0.00 0.00 97 1015.1
20260508042625 10 163 0.0 0.0 0.00 0.00 0.00 97 1015.2
20260508042123 10 161 0.0 1.6 0.00 0.00 0.00 97 1015.2
20260508041619 10 201 0.0 0.0 0.00 0.00 0.00 97 1015.2
20260508041116 10 201 0.0 0.0 0.00 0.00 0.00 97 1015.1
20260508040612 10 201 0.0 0.0 0.00 0.00 0.00 97 1015.2
20260508040110 10 201 0.0 0.0 0.00 0.00 0.00 97 1015.2
20260508035607 10 200 0.0 0.0 0.00 0.58 0.58 97 1014.9
20260508035104 10 200 0.0 0.0 0.00 0.58 0.58 97 1015.0
20260508034601 10 188 0.0 0.0 0.00 0.58 0.58 97 1015.0
20260508034058 10 186 0.0 0.0 0.00 0.58 0.58 97 1014.7
20260508033555 11 238 0.0 0.0 0.00 0.58 0.58 97 1014.9
20260508033054 11 239 0.0 1.6 0.00 0.58 0.58 97 1014.7
20260508032549 11 238 0.0 1.6 0.00 0.58 0.58 97 1015.0
20260508032048 11 207 0.0 0.0 0.00 0.58 0.58 97 1014.8
20260508031544 11 206 0.0 0.0 0.00 0.58 0.58 98 1014.8
20260508031040 11 206 0.0 0.0 0.00 0.58 0.58 97 1014.9
20260508030537 11 206 0.0 0.0 0.00 0.58 0.58 97 1014.8
20260508030035 11 246 0.0 0.0 0.00 0.58 0.58 98 1014.7
20260508025536 11 247 0.0 0.0 0.00 0.58 0.58 97 1014.6
20260508025033 11 277 0.0 1.6 0.00 0.58 0.58 98 1014.5
20260508024529 12 251 0.0 0.0 0.00 0.58 0.58 98 1014.5
20260508024026 12 196 0.0 0.0 0.00 0.58 0.58 98 1014.4
20260508023523 12 205 0.0 0.0 0.00 0.58 0.58 97 1014.6
20260508023020 12 226 0.0 0.0 0.00 0.58 0.58 97 1014.4
20260508022516 12 238 0.0 0.0 0.00 0.58 0.58 97 1014.4
20260508022013 12 237 0.0 0.0 0.00 0.58 0.58 97 1014.5
20260508021509 12 281 0.0 0.0 0.00 0.58 0.58 97 1014.1
20260508021005 12 208 0.0 0.0 0.00 0.58 0.58 97 1014.0
20260508020503 12 208 0.0 0.0 0.00 0.58 0.58 97 1014.1
20260508015959 12 217 0.0 1.6 0.00 0.58 0.58 97 1014.0
20260508015457 12 187 0.0 1.6 0.00 0.58 0.58 97 1013.8
20260508014954 12 255 0.0 0.0 0.00 0.58 0.58 97 1013.9
20260508014450 12 255 0.0 0.0 0.00 0.58 0.58 97 1013.9
20260508013947 12 255 0.0 0.0 0.00 0.58 0.58 96 1013.8
20260508013443 13 255 0.0 0.0 0.00 0.58 0.58 96 1013.8
20260508012940 13 255 0.0 0.0 0.00 0.58 0.58 96 1013.6
20260508012437 13 254 0.0 0.0 0.00 0.58 0.58 96 1013.6
20260508011934 13 254 0.0 0.0 0.00 0.58 0.58 96 1013.5
20260508011434 13 254 1.6 1.6 0.00 0.58 0.58 96 1013.2
20260508010929 13 258 0.0 1.6 0.00 0.58 0.58 96 1013.1
20260508010426 13 259 0.0 0.0 0.00 0.58 0.58 95 1012.9
20260508005924 13 260 0.0 0.0 0.00 0.58 0.58 95 1012.9
20260508005420 13 298 0.0 0.0 0.00 0.58 0.58 95 1012.6
20260508004917 13 320 0.0 1.6 0.00 0.58 0.58 95 1012.6
20260508004413 13 335 1.6 3.2 0.00 0.58 0.58 95 1012.3
20260508003910 13 74 0.0 0.0 0.00 0.58 0.58 95 1012.3
20260508003407 13 36 0.0 1.6 0.00 0.58 0.58 94 1012.1
20260508002904 13 18 1.6 3.2 0.00 0.58 0.58 94 1012.1
20260508002400 14 23 1.6 1.6 0.00 0.58 0.58 93 1012.2
20260508001856 14 80 0.0 1.6 0.00 0.58 0.58 93 1012.0
20260508001352 14 86 0.0 0.0 0.00 0.58 0.58 92 1012.1
20260508000849 14 58 1.6 1.6 0.00 0.58 0.58 92 1012.2
20260508000345 14 56 1.6 3.2 0.00 0.58 0.58 92 1012.1
20260507235842 15 70 0.0 1.6 0.00 0.58 0.58 91 1011.9
20260507235340 15 38 1.6 1.6 0.00 0.58 0.58 91 1011.8
20260507234837 15 48 1.6 3.2 0.00 0.58 0.58 90 1011.9
20260507234333 15 46 0.0 3.2 0.00 0.58 0.58 90 1011.8
20260507233830 15 73 0.0 1.6 0.00 0.58 0.58 90 1011.9
20260507233327 15 25 3.2 3.2 0.00 0.58 0.58 89 1011.9
20260507232826 15 84 0.0 3.2 0.00 0.58 0.58 89 1011.8
20260507232321 15 92 0.0 1.6 0.00 0.58 0.58 89 1011.9
20260507231819 15 65 0.0 1.6 0.00 0.58 0.58 89 1011.8
20260507231315 15 68 1.6 1.6 0.00 0.58 0.58 89 1011.8
20260507230812 15 57 1.6 1.6 0.00 0.58 0.58 89 1011.5
20260507230310 15 60 3.2 3.2 0.00 0.58 0.58 88 1011.7
20260507225809 15 77 0.0 1.6 0.00 0.58 0.58 89 1011.5
20260507225306 15 28 3.2 4.8 0.00 0.58 0.58 89 1011.4
20260507224801 15 27 3.2 3.2 0.00 0.58 0.58 90 1011.2
20260507224258 15 52 0.0 3.2 0.00 0.58 0.58 90 1011.0
20260507223755 15 40 1.6 1.6 0.00 0.58 0.58 91 1010.7
20260507223251 15 72 0.0 1.6 0.00 0.58 0.58 91 1010.8
20260507222748 15 81 0.0 6.4 0.00 0.58 0.58 91 1010.6
20260507222244 15 80 0.0 3.2 0.00 0.58 0.58 90 1010.8
20260507221742 15 53 1.6 3.2 0.00 0.58 0.58 91 1010.7
20260507221237 15 46 3.2 3.2 0.00 0.58 0.58 91 1010.7
20260507220734 15 75 1.6 1.6 0.00 0.58 0.58 91 1010.6
20260507220233 15 25 3.2 3.2 0.00 0.58 0.58 91 1010.5
20260507215728 15 23 1.6 4.8 0.00 0.58 0.58 90 1010.4
20260507215226 15 53 1.6 9.7 0.00 0.58 0.58 90 1010.1
20260507214723 15 39 3.2 9.7 0.00 0.58 0.58 89 1009.9
20260507214220 15 56 0.0 6.4 0.00 0.58 0.58 92 1010.2
20260507213715 16 90 1.6 3.2 0.00 0.58 0.58 92 1010.0
20260507213213 15 84 0.0 1.6 0.00 0.58 0.58 92 1009.8
20260507212709 15 17 3.2 4.8 0.00 0.58 0.58 91 1010.0
20260507212206 15 66 1.6 6.4 0.00 0.58 0.58 90 1010.0
20260507211702 16 53 1.6 6.4 0.00 0.58 0.58 89 1010.1
20260507211158 16 27 3.2 3.2 0.00 0.58 0.58 89 1009.9
20260507210656 16 56 0.0 4.8 0.00 0.58 0.58 89 1009.5
20260507210152 16 43 3.2 6.4 0.00 0.58 0.58 89 1009.5
20260507205649 16 12 3.2 6.4 0.00 0.58 0.58 87 1009.5
20260507205145 16 53 1.6 14.5 0.00 0.58 0.58 86 1009.6
20260507204642 16 40 3.2 6.4 0.00 0.58 0.58 87 1009.6
20260507204140 16 56 3.2 6.4 0.00 0.58 0.58 87 1009.8
20260507203637 16 65 1.6 4.8 0.00 0.58 0.58 88 1009.8
20260507203134 16 75 0.0 4.8 0.00 0.58 0.58 89 1009.9
20260507202630 16 38 3.2 6.4 0.00 0.58 0.58 89 1009.9
20260507202126 17 58 3.2 3.2 0.00 0.58 0.58 89 1009.6
20260507201621 17 81 0.0 1.6 0.00 0.58 0.58 89 1009.6
20260507201119 17 28 1.6 3.2 0.00 0.58 0.58 88 1009.6
20260507200614 17 47 3.2 6.4 0.00 0.58 0.58 88 1009.9
20260507200111 18 154 1.6 3.2 0.00 0.58 0.58 85 1009.5
20260507195608 20 55 1.6 6.4 0.00 0.58 0.58 79 1009.7
20260507195105 23 30 3.2 4.8 0.00 0.58 0.58 77 1009.1
20260507194601 23 220 1.6 3.2 0.00 0.58 0.58 73 1008.5
20260507194057 23 266 1.6 4.8 0.00 0.58 0.58 73 1008.3
20260507193554 22 206 3.2 6.4 0.00 0.58 0.58 75 1008.4
20260507193051 22 166 3.2 3.2 0.00 0.58 0.58 79 1008.6
20260507192547 22 214 0.0 1.6 0.00 0.58 0.58 76 1008.7
20260507192044 22 235 3.2 3.2 0.00 0.58 0.58 76 1008.5
20260507191540 22 222 6.4 6.4 0.00 0.58 0.58 74 1009.1
20260507191037 22 229 1.6 4.8 0.00 0.58 0.58 72 1008.7
20260507190534 23 165 1.6 4.8 0.00 0.58 0.58 73 1008.7
20260507190033 22 201 3.2 4.8 0.00 0.58 0.58 78 1008.6
20260507185531 22 222 0.0 1.6 0.00 0.58 0.58 76 1008.6
20260507185027 23 214 0.0 6.4 0.00 0.58 0.58 75 1008.7
20260507184526 22 228 3.2 4.8 0.00 0.58 0.58 73 1009.0
20260507184023 22 172 0.0 3.2 0.00 0.58 0.58 81 1009.1
20260507183519 22 175 1.6 3.2 0.00 0.58 0.58 76 1009.1
20260507183016 22 188 1.6 6.4 0.00 0.58 0.58 75 1009.1
20260507182512 22 174 1.6 1.6 0.00 0.58 0.58 75 1009.2
20260507182008 22 257 0.0 3.2 0.00 0.58 0.58 76 1009.3
20260507181506 22 227 4.8 6.4 0.00 0.58 0.58 78 1009.4
20260507181001 22 98 1.6 4.8 0.00 0.58 0.58 74 1009.2
20260507180458 22 224 4.8 4.8 0.00 0.58 0.58 76 1008.8
20260507175954 23 229 3.2 9.7 0.00 0.58 0.58 76 1009.2
20260507175451 22 223 3.2 4.8 0.00 0.58 0.58 76 1009.3
20260507174949 22 263 1.6 3.2 0.00 0.58 0.58 79 1009.3
20260507174446 22 187 3.2 4.8 0.00 0.58 0.58 79 1009.5
20260507173943 21 190 0.0 1.6 0.00 0.58 0.58 80 1009.5
20260507173440 21 196 3.2 3.2 0.00 0.58 0.58 85 1009.8
20260507172937 21 211 0.0 3.2 0.00 0.58 0.58 81 1009.6
20260507172433 21 288 1.6 1.6 0.00 0.58 0.58 81 1009.5
20260507171930 21 222 0.0 3.2 0.00 0.58 0.58 82 1009.8
20260507171426 21 179 3.2 4.8 0.00 0.58 0.58 81 1009.8
20260507170924 21 215 3.2 6.4 0.00 0.58 0.58 83 1009.9
20260507170420 21 181 1.6 3.2 0.00 0.58 0.58 85 1010.0
20260507165916 21 233 1.6 3.2 0.00 0.58 0.58 88 1010.2
20260507165412 21 232 0.0 0.0 0.00 0.58 0.58 85 1010.3
20260507164908 21 262 0.0 1.6 0.00 0.58 0.58 83 1010.4
20260507164405 21 210 0.0 4.8 0.00 0.58 0.58 87 1010.1
20260507163903 20 214 0.0 0.0 0.00 0.58 0.58 92 1010.0
20260507163400 20 257 1.6 1.6 0.00 0.58 0.58 92 1010.2
20260507162856 20 256 0.0 0.0 0.00 0.58 0.58 92 1010.3
20260507162352 20 227 1.6 3.2 0.00 0.58 0.58 90 1010.2
20260507161849 19 165 1.6 3.2 0.00 0.58 0.58 93 1010.2
20260507161345 19 195 3.2 3.2 0.00 0.58 0.58 94 1010.4
20260507160842 18 219 0.0 1.6 0.00 0.58 0.58 94 1010.3
20260507160338 19 227 1.6 3.2 0.00 0.58 0.58 96 1010.0
20260507155834 18 47 0.0 3.2 0.00 0.58 0.58 98 1010.0
20260507155330 19 171 0.0 3.2 0.00 0.58 0.58 98 1010.0
20260507154827 18 202 0.0 3.2 0.00 0.58 0.58 99 1009.7
20260507154325 18 224 0.0 1.6 0.00 0.58 0.58 99 1009.7
20260507153821 18 189 0.0 1.6 0.00 0.58 0.58 99 1009.7
20260507153318 18 216 1.6 1.6 0.00 0.58 0.58 99 1009.8
20260507152814 18 210 0.0 0.0 0.00 0.58 0.58 99 1010.0
20260507152311 18 210 0.0 0.0 0.00 0.58 0.58 99 1009.9
20260507151806 17 192 0.0 1.6 0.00 0.58 0.58 99 1010.1
20260507151303 17 213 0.0 3.2 0.00 0.58 0.58 99 1010.5
20260507150800 17 219 0.0 1.6 0.00 0.58 0.58 99 1010.5
20260507150257 17 194 0.0 0.0 0.00 0.58 0.58 99 1010.5
20260507145753 17 211 0.0 1.6 0.00 0.58 0.58 99 1010.5
20260507145249 17 244 0.0 1.6 0.00 0.58 0.58 99 1010.8
20260507144746 17 224 1.6 1.6 0.00 0.58 0.58 99 1010.7
20260507144244 17 227 1.6 4.8 0.13 0.58 0.58 99 1011.0
20260507143740 17 217 1.6 3.2 0.13 0.58 0.58 99 1011.0
20260507143238 17 202 1.6 4.8 0.00 0.56 0.56 99 1011.2
20260507142733 17 189 0.0 1.6 0.00 0.56 0.56 99 1011.2
20260507142230 17 221 1.6 3.2 0.00 0.56 0.56 99 1011.2
20260507141726 17 218 0.0 1.6 0.00 0.56 0.56 99 1011.0
20260507141224 17 214 1.6 3.2 0.00 0.56 0.56 99 1010.8
20260507140719 17 206 0.0 0.0 0.00 0.56 0.56 99 1010.6
20260507140218 17 206 0.0 1.6 0.00 0.56 0.56 99 1010.5
20260507135714 17 206 0.0 1.6 0.00 0.56 0.56 99 1010.6
20260507135212 17 204 1.6 1.6 0.18 0.56 0.56 99 1010.5
20260507134708 17 196 0.0 1.6 0.18 0.56 0.56 99 1010.7
20260507134204 17 204 0.0 0.0 0.00 0.53 0.53 99 1010.7
20260507133700 17 204 0.0 0.0 0.00 0.53 0.53 99 1010.7
20260507133157 17 204 0.0 0.0 0.00 0.53 0.53 99 1010.5
20260507132655 17 204 0.0 0.0 0.13 0.53 0.53 99 1010.5
20260507132151 17 204 0.0 1.6 0.13 0.53 0.53 99 1010.5
20260507131648 17 200 0.0 1.6 0.00 0.51 0.51 99 1010.1
20260507131145 17 231 0.0 1.6 0.00 0.51 0.51 99 1010.2
20260507130641 17 199 0.0 1.6 0.18 0.51 0.51 99 1010.0
20260507130140 17 228 1.6 1.6 0.18 0.51 0.51 99 1010.2